Location: Unspecified
(0.0000°N, 0.0000°E)
Time: 14:49:56
(UTC+00:00)

OFEQ 7 - Pass Details

Date: 12 June 2023
Orbit: 475 x 482 km, 141.7° (Epoch: 03 October)

Event Time Altitude Azimuth Distance (km) Brightness Sun altitude
Rises 18:38:59 0° 40° (NE) 2,483 8.5 -9.0°
Reaches altitude 10° 18:41:02 10° 30° (NNE) 1,614 7.6 -9.4°
Maximum altitude 18:44:05 34° 324° (NW) 789 6.8 -10.1°
Drops below altitude 10° 18:47:09 10° 258° (WSW) 1,626 8.6 -10.8°
Sets 18:49:14 0° 248° (WSW) 2,506 9.4 -11.3°
